Location: Bryzozowice
(50.3667°N, 18.9667°E)
Time: 18:43:42
(UTC+00:00)

SL-14 R/B - Pass Details

Date: 24 January 2020
Orbit: 517 x 556 km, 82.4° (Epoch: 15 February)

Event Time Altitude Azimuth Distance (km) Brightness Sun altitude
Rises 16:07:22 0° 191° (S) 2,705 7.3 -7.3°
Reaches altitude 10° 16:09:31 10° 192° (SSW) 1,812 6.4 -7.6°
Maximum altitude 16:13:31 82° 279° (W) 553 3.4 -8.2°
Drops below altitude 10° 16:17:30 10° 9° (N) 1,804 5.7 -8.8°
Sets 16:19:39 0° 10° (N) 2,694 6.5 -9.1°
